Location: Torrington
(42.0650°N, 104.1810°W)
Time: 05:02:42
(UTC-06:00)

Amateur Radio Satellites - All Passes

Search period start: 26 May 2017 04:32
Search period end: 27 May 2017 04:32
Location: Torrington, 42.0650°N, 104.1810°W

Satellite Date Start Highest point End Downlink Frequencies (MHz)
Time Altitude Azimuth
KKS-1 26 May 04:40:27 04:44:51 71° 74° (ENE) 04:49:16 437.445
O/OREOS (USA 219) 26 May 04:44:43 04:49:19 69° 294° (WNW) 04:53:54 437.305
ISS 26 May 04:49:20 04:51:05 14° 229° (SW) 04:52:50 437.550
RS-15 26 May 04:50:37 05:02:03 43° 322° (NW) 05:13:40 29.354- 29.394
PCSat 26 May 04:55:26 05:00:55 88° 242° (WSW) 05:06:20 145.827
AO-7 26 May 05:04:49 05:13:12 82° 291° (WNW) 05:21:34 .
STARS 26 May 05:13:10 05:17:29 69° 73° (ENE) 05:21:50 437.465
BEESAT 3 26 May 05:29:18 05:33:00 39° 117° (ESE) 05:36:46 437.485
AO-85 26 May 05:39:30 05:43:33 50° 306° (NW) 05:47:26 145.980
ITAMSAT 1 26 May 05:47:12 05:51:05 22° 297° (WNW) 05:54:58 435.822/435.867
CUTE-I 26 May 05:59:38 06:02:11 13° 89° (E) 06:04:44 437.470
CUBESAT XI-V 26 May 06:06:19 06:08:59 15° 270° (W) 06:11:39 437.345
XW-2D 26 May 06:17:39 06:20:30 19° 94° (E) 06:23:18 145.860 - 145.880
KKS-1 26 May 06:20:52 06:21:52 11° 270° (W) 06:22:53 437.445
XW-2B 26 May 06:25:22 06:28:29 23° 95° (E) 06:31:34 145.730 - 145.750
DOVE 4 26 May 06:31:08 06:35:12 51° 100° (E) 06:39:22 437.250
XW-2F 26 May 06:38:06 06:41:34 31° 97° (E) 06:44:59 145.980 - 146.000
XW-2C 26 May 06:38:41 06:42:13 33° 97° (E) 06:45:42 145.795 - 145.815
NUDT-PHONESAT 26 May 06:39:01 06:42:12 25° 95° (E) 06:45:21 437.300
PCSat 26 May 06:41:40 06:43:27 12° 258° (WSW) 06:45:13 145.827
BEESAT 2 26 May 06:45:00 06:48:59 84° 306° (NW) 06:53:02 435.950
KAITUO 1B 26 May 06:46:36 06:50:03 32° 97° (E) 06:53:27 145.475/437.950
SO-50 26 May 06:52:02 06:56:09 34° 48° (NE) 07:00:17 436.795
STARS 26 May 06:53:11 06:54:16 11° 270° (W) 06:55:22 437.465
AO-7 26 May 06:59:09 07:04:46 20° 311° (NW) 07:10:24 .
BEESAT 3 26 May 07:07:37 07:10:44 22° 315° (NW) 07:13:54 437.485
RS-15 26 May 07:09:36 07:19:08 24° 355° (N) 07:28:35 29.354- 29.394
STRAND 1 26 May 07:13:11 07:18:11 61° 72° (ENE) 07:23:13 437.568
HO-68 26 May 07:15:24 07:20:47 22° 92° (E) 07:26:06 435.675
LilacSat-2 26 May 07:15:58 07:19:52 78° 284° (WNW) 07:23:43 437.200
M-CUBED/EXP-1 PRIME 26 May 07:35:32 07:39:09 28° 65° (ENE) 07:42:33 437.505
CUTE-I 26 May 07:37:27 07:42:48 77° 286° (WNW) 07:48:08 437.470
CUBEBUG 2 26 May 07:37:48 07:39:49 13° 90° (E) 07:41:51 437.445
XW-2D 26 May 07:51:19 07:54:42 30° 290° (WNW) 07:58:04 145.860 - 145.880
SEEDS 26 May 07:54:19 07:57:40 22° 94° (E) 08:00:58 437.485
XW-2B 26 May 07:59:24 08:02:36 25° 291° (WNW) 08:05:47 145.730 - 145.750
DOVE 4 26 May 08:10:20 08:12:31 14° 296° (WNW) 08:14:43 437.250
XW-2F 26 May 08:12:44 08:15:29 19° 293° (WNW) 08:18:12 145.980 - 146.000
NUDT-PHONESAT 26 May 08:13:02 08:15:59 22° 291° (WNW) 08:18:55 437.300
XW-2C 26 May 08:13:29 08:16:09 18° 293° (WNW) 08:18:48 145.795 - 145.815
KAITUO 1B 26 May 08:21:11 08:23:49 18° 293° (WNW) 08:26:26 145.475/437.950
BEESAT 2 26 May 08:25:46 08:27:24 12° 322° (NW) 08:29:02 435.950
SO-50 26 May 08:32:38 08:36:31 29° 246° (WSW) 08:40:24 436.795
NO-84 26 May 08:34:03 08:38:04 36° 131° (SE) 08:42:00 435.350 FM
CUTE 1.7 + AOD 2 26 May 08:39:08 08:43:23 71° 286° (WNW) 08:47:36 437.475
AO-73 26 May 08:48:35 08:52:09 22° 94° (E) 08:55:44 145.935
XW-2A 26 May 08:49:37 08:52:57 48° 286° (WNW) 08:56:17 145.665 - 145.685
UNISAT 6 26 May 08:50:04 08:51:57 13° 61° (ENE) 08:53:50 437.425
STRAND 1 26 May 08:54:38 08:57:46 16° 269° (W) 09:00:54 437.568
AAUSAT CUBESAT 2 26 May 08:54:50 08:58:53 50° 99° (E) 09:02:53 437.432
ZACube-1 26 May 09:01:53 09:06:02 34° 97° (E) 09:10:11 437.345
HO-68 26 May 09:01:54 09:09:05 71° 290° (WNW) 09:16:13 435.675
PRISM 26 May 09:03:52 09:07:04 22° 67° (ENE) 09:10:17 437.425
M-CUBED/EXP-1 PRIME 26 May 09:09:58 09:13:31 25° 258° (WSW) 09:16:54 437.505
CUBEBUG 2 26 May 09:12:16 09:16:49 67° 285° (WNW) 09:21:28 437.445
CUTE-I 26 May 09:20:27 09:21:56 11° 304° (NW) 09:23:25 437.470
UWE-3 26 May 09:23:27 09:28:03 82° 286° (WNW) 09:32:43 435.000/436.395/437.385
RS-15 26 May 09:25:51 09:36:49 35° 30° (NNE) 09:47:21 29.354- 29.394
SEEDS 26 May 09:29:39 09:33:22 30° 290° (WNW) 09:37:02 437.485
FO-29 26 May 09:38:28 09:43:20 44° 69° (ENE) 09:48:21 435.910
TIGRISAT 26 May 09:52:19 09:56:26 51° 73° (ENE) 10:00:40 435.000
Oscar 11 26 May 09:57:54 10:02:17 85° 286° (WNW) 10:06:37 .
NO-84 26 May 10:11:32 10:15:40 40° 327° (NNW) 10:19:39 435.350 FM
UNISAT 6 26 May 10:23:51 10:28:05 64° 259° (W) 10:32:25 437.425
AO-73 26 May 10:24:17 10:28:26 36° 290° (WNW) 10:32:38 145.935
AAUSAT CUBESAT 2 26 May 10:31:38 10:33:54 14° 296° (WNW) 10:36:09 437.432
ZACube-1 26 May 10:38:26 10:42:08 25° 292° (WNW) 10:45:49 437.345
PRISM 26 May 10:38:30 10:42:11 31° 263° (W) 10:45:52 437.425
AIST 2D 26 May 10:44:54 10:47:42 23° 70° (ENE) 10:50:32 435.315
HO-68 26 May 10:51:52 10:55:33 15° 309° (NW) 10:59:14 435.675
DELFI C3 26 May 10:52:08 10:56:04 72° 284° (WNW) 10:59:57 145.870
EO-79 26 May 10:57:48 11:00:51 20° 66° (ENE) 11:03:56 145.935-145.965
EO-88 26 May 11:00:30 11:04:12 77° 284° (WNW) 11:07:52 145.990 - 145.960
FO-29 26 May 11:24:50 11:28:44 21° 268° (W) 11:32:43 435.910
TIGRISAT 26 May 11:31:16 11:33:28 14° 270° (W) 11:35:43 435.000
RS-15 26 May 11:38:53 11:51:11 88° 57° (ENE) 12:02:51 29.354- 29.394
NANOSAT C BR1 26 May 11:42:02 11:46:06 54° 74° (ENE) 11:50:12 145.865
YUBILEINY 26 May 11:42:30 11:50:31 36° 70° (ENE) 11:58:28 435.215
LO-87 26 May 11:44:49 11:48:14 43° 99° (E) 11:51:39 145.935 - 145.965
POLYITAN 1 26 May 11:46:12 11:50:21 68° 75° (ENE) 11:54:32 437.675
ESTCUBE 1 26 May 11:46:18 11:50:08 27° 95° (E) 11:53:56 437.505/2401.250
NO-84 26 May 11:51:35 11:54:10 15° 347° (NNW) 11:56:39 435.350 FM
DUCHIFAT 1 26 May 11:52:51 11:56:58 65° 74° (ENE) 12:01:06 145.980
QB50P2 26 May 11:54:49 11:59:01 88° 266° (W) 12:03:15 145.880/145.840
BUGSAT 1 26 May 12:12:45 12:16:18 31° 70° (ENE) 12:19:52 437.445
AIST 2D 26 May 12:18:08 12:20:51 21° 266° (W) 12:23:35 435.315
Gurwin Techsat 1B 26 May 12:23:55 12:26:15 13° 58° (ENE) 12:28:35 435.225
AO-85 26 May 12:30:16 12:33:01 17° 43° (NE) 12:35:50 145.980
EO-79 26 May 12:32:31 12:36:22 36° 262° (W) 12:40:16 145.935-145.965
SPROUT 26 May 12:39:33 12:43:07 25° 95° (E) 12:46:41 437.525
VELOX 1 26 May 12:43:18 12:47:03 27° 96° (E) 12:50:47 145.980
Oscar 19 26 May 12:45:35 12:50:08 32° 67° (ENE) 12:54:42 437.125/150
50 SAT 26 May 13:01:13 13:03:42 19° 95° (E) 13:06:09 437.505
UKube-1 26 May 13:13:38 13:15:50 14° 92° (E) 13:18:00 .
O/OREOS (USA 219) 26 May 13:15:37 13:19:25 26° 58° (ENE) 13:23:10 437.305
DX 1 26 May 13:19:47 13:23:17 23° 95° (E) 13:26:46 434.975-435.025
LO-87 26 May 13:19:50 13:21:17 12° 295° (WNW) 13:22:44 145.935 - 145.965
NANOSAT C BR1 26 May 13:20:17 13:22:08 13° 269° (W) 13:24:00 145.865
ESTCUBE 1 26 May 13:22:59 13:26:54 29° 292° (WNW) 13:30:46 437.505/2401.250
POLYITAN 1 26 May 13:26:09 13:26:35 10° 271° (W) 13:27:01 437.675
BEESAT 2 26 May 13:27:35 13:27:42 10° 35° (NE) 13:27:50 435.950
NO-84 26 May 13:31:02 13:33:08 14° 8° (N) 13:35:10 435.350 FM
DUCHIFAT 1 26 May 13:32:14 13:33:03 10° 271° (W) 13:33:52 145.980
YUBILEINY 26 May 13:39:08 13:47:33 52° 271° (W) 13:55:58 435.215
BEESAT 3 26 May 13:45:38 13:49:10 28° 48° (NE) 13:52:40 437.485
BUGSAT 1 26 May 13:48:46 13:51:43 20° 266° (W) 13:54:41 437.445
ITAMSAT 1 26 May 13:50:11 13:51:46 11° 57° (ENE) 13:53:22 435.822/435.867
RS-15 26 May 13:53:06 14:01:59 25° 260° (W) 14:10:36 29.354- 29.394
Gurwin Techsat 1B 26 May 14:00:05 14:05:24 90° 68° (ENE) 14:10:45 435.225
AO-85 26 May 14:09:42 14:13:40 55° 241° (WSW) 14:17:51 145.980
AO-7 26 May 14:12:55 14:20:03 34° 57° (ENE) 14:27:12 .
SPROUT 26 May 14:15:19 14:18:59 28° 291° (WNW) 14:22:38 437.525
VELOX 1 26 May 14:19:42 14:23:26 28° 292° (WNW) 14:27:09 145.980
Oscar 19 26 May 14:24:43 14:29:23 33° 263° (W) 14:34:04 437.125/150
50 SAT 26 May 14:33:47 14:36:32 23° 290° (WNW) 14:39:15 437.505
UKube-1 26 May 14:47:58 14:52:09 53° 288° (WNW) 14:56:20 .
O/OREOS (USA 219) 26 May 14:54:49 14:58:50 32° 255° (WSW) 15:02:49 437.305
DX 1 26 May 14:55:39 14:59:29 31° 291° (WNW) 15:03:18 434.975-435.025
BEESAT 2 26 May 15:02:14 15:06:17 63° 55° (NE) 15:10:17 435.950
NO-84 26 May 15:08:16 15:11:45 31° 29° (NNE) 15:14:58 435.350 FM
ITUPSAT 1 26 May 15:20:30 15:24:40 29° 96° (E) 15:28:49 437.325
BEESAT 3 26 May 15:23:15 15:26:41 28° 246° (WSW) 15:30:05 437.485
ITAMSAT 1 26 May 15:25:13 15:30:23 82° 74° (ENE) 15:35:35 435.822/435.867
MOZHAYETS 4 26 May 15:37:29 15:41:19 25° 94° (E) 15:45:07
Gurwin Techsat 1B 26 May 15:44:39 15:46:03 11° 272° (W) 15:47:26 435.225
BEESAT 26 May 15:53:43 15:58:29 63° 102° (ESE) 16:03:14 436.000
AO-7 26 May 16:04:14 16:12:22 60° 256° (WSW) 16:20:36 .
CUBESAT XI-V 26 May 16:24:21 16:26:43 14° 90° (E) 16:29:05 437.345
KKS-1 26 May 16:32:39 16:34:41 13° 91° (E) 16:36:41 437.445
BEESAT 2 26 May 16:41:56 16:43:29 12° 252° (WSW) 16:45:04 435.950
NO-84 26 May 16:45:58 16:49:20 34° 230° (SW) 16:52:24 435.350 FM
ITUPSAT 1 26 May 16:58:13 17:02:28 32° 292° (WNW) 17:06:42 437.325
XW-2D 26 May 17:01:07 17:02:11 11° 63° (ENE) 17:03:15 145.860 - 145.880
STARS 26 May 17:04:05 17:05:40 12° 90° (E) 17:07:15 437.465
XW-2B 26 May 17:08:18 17:10:04 13° 64° (ENE) 17:11:51 145.730 - 145.750
ITAMSAT 1 26 May 17:08:34 17:10:28 12° 271° (W) 17:12:21 435.822/435.867
MOZHAYETS 4 26 May 17:14:19 17:18:30 34° 291° (WNW) 17:22:39
NUDT-PHONESAT 26 May 17:19:55 17:21:46 13° 65° (ENE) 17:23:37 437.300
XW-2F 26 May 17:20:05 17:22:35 17° 66° (ENE) 17:25:06 145.980 - 146.000
XW-2C 26 May 17:20:57 17:23:36 18° 67° (ENE) 17:26:16 145.795 - 145.815
CUTE-I 26 May 17:21:10 17:25:23 25° 64° (ENE) 17:29:36 437.470
KAITUO 1B 26 May 17:27:42 17:30:11 17° 67° (ENE) 17:32:41 145.475/437.950
BEESAT 26 May 17:32:55 17:35:44 16° 299° (WNW) 17:38:33 436.000
DOVE 4 26 May 17:36:38 17:41:10 56° 74° (ENE) 17:45:27 437.250
HO-68 26 May 17:45:52 17:50:35 19° 54° (NE) 17:55:18 435.675
LilacSat-2 26 May 17:57:49 18:01:32 51° 74° (ENE) 18:05:18 437.200
PCSat 26 May 17:59:43 18:00:04 10° 101° (E) 18:00:23 145.827
CUBESAT XI-V 26 May 17:59:54 18:04:30 60° 286° (WNW) 18:09:02 437.345
KKS-1 26 May 18:07:13 18:11:36 60° 287° (WNW) 18:15:58 437.445
XW-2D 26 May 18:32:06 18:35:51 59° 260° (W) 18:39:39 145.860 - 145.880
STARS 26 May 18:38:04 18:42:25 65° 287° (WNW) 18:46:46 437.465
CUBEBUG 2 26 May 18:38:20 18:38:50 10° 60° (ENE) 18:39:19 437.445
XW-2B 26 May 18:40:08 18:43:49 48° 261° (W) 18:47:33 145.730 - 145.750
SEEDS 26 May 18:46:46 18:49:36 18° 65° (ENE) 18:52:27 437.485
NUDT-PHONESAT 26 May 18:51:43 18:55:16 44° 261° (W) 18:58:53 437.300
XW-2F 26 May 18:52:58 18:56:27 34° 263° (W) 18:59:58 145.980 - 146.000
XW-2C 26 May 18:54:07 18:57:33 32° 263° (W) 19:01:02 145.795 - 145.815
CUTE-I 26 May 19:00:05 19:05:09 45° 261° (W) 19:10:15 437.470
KAITUO 1B 26 May 19:00:28 19:03:55 34° 263° (W) 19:07:24 145.475/437.950
DOVE 4 26 May 19:16:46 19:19:07 14° 268° (W) 19:21:26 437.250
XW-2A 26 May 19:20:53 19:24:09 51° 74° (ENE) 19:27:27 145.665 - 145.685
Tancredo 1 26 May 19:21:45 19:22:58 12° 131° (SE) 19:24:11 437.200
STRAND 1 26 May 19:24:02 19:27:46 20° 93° (E) 19:31:30 437.568
HO-68 26 May 19:30:10 19:37:21 89° 81° (E) 19:44:36 435.675
CUTE 1.7 + AOD 2 26 May 19:31:31 19:35:49 83° 74° (ENE) 19:40:08 437.475
LilacSat-2 26 May 19:34:53 19:36:07 11° 270° (W) 19:37:22 437.200
PCSat 26 May 19:37:06 19:42:31 80° 118° (ESE) 19:47:58 145.827
AAUSAT CUBESAT 2 26 May 19:45:04 19:48:52 34° 71° (ENE) 19:52:40 437.432
AO-73 26 May 19:45:04 19:47:53 18° 65° (ENE) 19:50:46 145.935
ISS 26 May 19:52:56 19:55:07 17° 132° (SE) 19:57:19 437.550
ZACube-1 26 May 19:58:17 20:01:48 26° 68° (ENE) 20:05:25 437.345
CUBEBUG 2 26 May 20:10:38 20:14:47 77° 258° (WSW) 20:19:02 437.445
UWE-3 26 May 20:20:38 20:24:48 82° 78° (ENE) 20:29:06 435.000/436.395/437.385
SEEDS 26 May 20:20:54 20:24:57 42° 262° (W) 20:29:01 437.485
M-CUBED/EXP-1 PRIME 26 May 20:48:46 20:50:25 13° 98° (E) 20:52:04 437.505
Oscar 11 26 May 20:52:32 20:56:52 76° 76° (ENE) 21:01:14 .
Tancredo 1 26 May 20:55:15 20:58:18 74° 326° (NW) 21:01:24 437.200
STRAND 1 26 May 21:02:14 21:07:12 50° 289° (WNW) 21:12:10 437.568
AO-73 26 May 21:19:46 21:23:46 42° 262° (W) 21:27:54 145.935
AAUSAT CUBESAT 2 26 May 21:21:19 21:24:24 20° 267° (W) 21:27:29 437.432
HO-68 26 May 21:21:45 21:25:57 16° 271° (W) 21:30:11 435.675
PCSat 26 May 21:22:44 21:26:33 19° 318° (NW) 21:30:24 145.827
ISS 26 May 21:28:03 21:31:19 60° 329° (NNW) 21:34:35 437.550
ZACube-1 26 May 21:34:26 21:38:01 27° 265° (W) 21:41:41 437.345
DELFI C3 26 May 21:37:20 21:41:17 65° 75° (ENE) 21:45:15 145.870
EO-88 26 May 21:38:22 21:41:50 44° 74° (ENE) 21:45:22 145.990 - 145.960
TIGRISAT 26 May 21:45:16 21:46:44 11° 89° (E) 21:48:13 435.000
UNISAT 6 26 May 22:15:02 22:18:55 26° 95° (E) 22:22:49 437.425
PRISM 26 May 22:19:00 22:22:38 31° 97° (E) 22:26:16 437.425
LO-87 26 May 22:21:53 22:24:28 19° 68° (ENE) 22:27:03 145.935 - 145.965
M-CUBED/EXP-1 PRIME 26 May 22:22:06 22:25:02 30° 294° (WNW) 22:27:55 437.505
FO-29 26 May 22:29:36 22:35:47 44° 99° (E) 22:42:39 435.910
Tancredo 1 26 May 22:32:14 22:34:28 18° 345° (NNW) 22:36:43 437.200
ESTCUBE 1 26 May 22:46:08 22:49:56 27° 67° (ENE) 22:53:44 437.505/2401.250
SO-50 26 May 22:46:13 22:50:49 80° 123° (ESE) 22:55:22 436.795
ISS 26 May 23:05:54 23:08:19 18° 348° (NNW) 23:10:43 437.550
EO-88 26 May 23:14:26 23:15:46 12° 269° (W) 23:17:07 145.990 - 145.960
TIGRISAT 26 May 23:19:17 23:23:53 74° 285° (WNW) 23:28:32 435.000
POLYITAN 1 26 May 23:33:05 23:34:04 11° 89° (E) 23:35:03 437.675
SPROUT 26 May 23:33:33 23:36:44 21° 66° (ENE) 23:39:56 437.525
QB50P2 26 May 23:40:29 23:42:53 15° 91° (E) 23:45:17 145.880/145.840
VELOX 1 26 May 23:40:54 23:44:35 26° 67° (ENE) 23:48:15 145.980
AIST 2D 26 May 23:42:07 23:45:10 25° 96° (E) 23:48:10 435.315
UNISAT 6 26 May 23:51:30 23:55:36 32° 291° (WNW) 23:59:45 437.425
PRISM 26 May 23:54:39 23:57:44 21° 294° (WNW) 00:00:49 437.425
LO-87 26 May 23:54:46 23:57:45 25° 264° (W) 00:00:45 145.935 - 145.965
RS-15 27 May 00:01:10 00:03:12 11° 91° (E) 00:05:16 29.354- 29.394
UKube-1 27 May 00:08:58 00:11:04 13° 62° (ENE) 00:13:10 .
Tancredo 1 27 May 00:09:20 00:11:07 14° 5° (N) 00:12:54 437.200
FO-29 27 May 00:14:59 00:20:41 36° 293° (WNW) 00:27:01 435.910
DX 1 27 May 00:15:47 00:19:11 23° 66° (ENE) 00:22:35 434.975-435.025
EO-79 27 May 00:16:22 00:20:14 33° 97° (E) 00:24:05 145.935-145.965
ESTCUBE 1 27 May 00:22:37 00:26:37 30° 264° (W) 00:30:38 437.505/2401.250
SO-50 27 May 00:28:55 00:31:50 16° 321° (NW) 00:34:44 436.795
ISS 27 May 00:43:30 00:45:44 17° 8° (N) 00:47:57 437.550
YUBILEINY 27 May 00:44:10 00:52:03 40° 86° (E) 00:59:59 435.215
NANOSAT C BR1 27 May 01:01:08 01:05:24 84° 284° (WNW) 01:09:39 145.865
50 SAT 27 May 01:05:27 01:08:52 62° 259° (W) 01:12:18 437.505
POLYITAN 1 27 May 01:06:01 01:10:16 68° 286° (WNW) 01:14:31 437.675
SPROUT 27 May 01:08:34 01:12:25 34° 263° (W) 01:16:19 437.525
DUCHIFAT 1 27 May 01:11:41 01:15:55 72° 285° (WNW) 01:20:08 145.980
QB50P2 27 May 01:14:49 01:18:57 49° 287° (WNW) 01:23:04 145.880/145.840
AIST 2D 27 May 01:15:36 01:18:12 19° 292° (WNW) 01:20:48 435.315
VELOX 1 27 May 01:17:03 01:20:55 29° 264° (W) 01:24:47 145.980
BUGSAT 1 27 May 01:28:26 01:32:29 52° 100° (E) 01:36:34 437.445
UKube-1 27 May 01:42:19 01:46:34 61° 258° (WSW) 01:50:51 .
Tancredo 1 27 May 01:44:46 01:47:34 31° 25° (NNE) 01:50:22 437.200
DX 1 27 May 01:51:14 01:55:10 34° 262° (W) 01:59:09 434.975-435.025
EO-79 27 May 01:52:30 01:55:48 22° 293° (WNW) 01:59:06 145.935-145.965
RS-15 27 May 02:01:05 02:12:42 57° 112° (ESE) 02:24:37 29.354- 29.394
Gurwin Techsat 1B 27 May 02:16:08 02:20:58 34° 97° (E) 02:25:46 435.225
ISS 27 May 02:19:43 02:22:52 41° 27° (NNE) 02:26:00 437.550
ITUPSAT 1 27 May 02:27:29 02:31:48 35° 69° (ENE) 02:36:09 437.325
Oscar 19 27 May 02:35:05 02:40:18 84° 105° (ESE) 02:45:25 437.125/150
MOZHAYETS 4 27 May 02:39:45 02:43:31 25° 67° (ENE) 02:47:19
YUBILEINY 27 May 02:40:27 02:48:42 46° 286° (WNW) 02:57:04 435.215
PCSat 27 May 02:42:46 02:45:35 14° 37° (NE) 02:48:23 145.827
BEESAT 27 May 03:00:14 03:04:58 76° 75° (ENE) 03:09:45 436.000
BUGSAT 1 27 May 03:05:12 03:07:25 14° 296° (WNW) 03:09:39 437.445
Tancredo 1 27 May 03:20:31 03:23:19 32° 222° (SW) 03:26:05 437.200
CUBESAT XI-V 27 May 03:28:04 03:30:51 16° 63° (ENE) 03:33:40 437.345
O/OREOS (USA 219) 27 May 03:28:25 03:32:14 26° 103° (ESE) 03:36:03 437.305
KKS-1 27 May 03:31:22 03:33:38 14° 62° (ENE) 03:35:53 437.445
ITAMSAT 1 27 May 03:38:03 03:42:28 27° 95° (E) 03:46:53 435.822/435.867
Gurwin Techsat 1B 27 May 03:56:10 04:00:49 32° 294° (WNW) 04:05:27 435.225
ISS 27 May 03:56:28 03:59:15 25° 224° (SW) 04:02:00 437.550
STARS 27 May 04:01:29 04:03:13 12° 61° (ENE) 04:04:57 437.465
AO-7 27 May 04:05:10 04:13:09 47° 100° (E) 04:21:06 .
ITUPSAT 1 27 May 04:05:45 04:09:40 25° 265° (W) 04:13:37 437.325
MOZHAYETS 4 27 May 04:16:22 04:20:31 33° 264° (W) 04:24:43
Oscar 19 27 May 04:16:27 04:18:52 13° 301° (WNW) 04:21:18 437.125/150
AO-85 27 May 04:24:34 04:28:28 38° 117° (ESE) 04:32:13 145.980
